2016-01-04 00:03:02 r, 17.80m,0000000007Hz,0000069076c,0000000.150s, 006.1C,00002195
2016-01-04 00:13:00 r, 17.76m,0000000007Hz,0000066081c,0000000.143s, 006.1C,00002195
2016-01-04 00:23:00 r, 17.79m,0000000007Hz,0000068517c,0000000.149s, 006.1C,00002195
2016-01-04 00:33:02 r, 17.79m,0000000006Hz,0000068118c,0000000.148s, 006.1C,00002195
2016-01-04 00:43:00 r, 17.79m,0000000007Hz,0000068443c,0000000.149s, 005.8C,00002195
2016-01-04 00:53:02 r, 17.82m,0000000007Hz,0000069660c,0000000.151s, 006.1C,00002195
2016-01-04 01:03:00 r, 17.82m,0000000007Hz,0000069961c,0000000.152s, 006.1C,00002195
2016-01-04 01:13:00 r, 17.82m,0000000007Hz,0000070085c,0000000.152s, 005.8C,00002195
2016-01-04 01:23:00 r, 17.82m,0000000007Hz,0000069990c,0000000.152s, 006.1C,00002195
2016-01-04 01:33:01 r, 17.82m,0000000006Hz,0000069909c,0000000.152s, 006.1C,00002195
2016-01-04 01:43:00 r, 17.80m,0000000007Hz,0000069108c,0000000.150s, 005.8C,00002195
2016-01-04 01:53:00 r, 17.82m,0000000007Hz,0000069844c,0000000.152s, 005.8C,00002195
2016-01-04 02:03:00 r, 17.80m,0000000006Hz,0000069097c,0000000.150s, 005.8C,00002195
2016-01-04 02:13:00 r, 17.82m,0000000007Hz,0000069798c,0000000.151s, 005.8C,00002195
2016-01-04 02:23:00 r, 17.82m,0000000007Hz,0000069983c,0000000.152s, 005.8C,00002195
2016-01-04 02:33:02 r, 17.82m,0000000006Hz,0000070076c,0000000.152s, 005.4C,00002195
2016-01-04 02:43:00 r, 17.82m,0000000006Hz,0000070012c,0000000.152s, 005.4C,00002195
2016-01-04 02:53:00 r, 17.82m,0000000007Hz,0000070117c,0000000.152s, 005.4C,00002195
2016-01-04 03:03:01 r, 17.81m,0000000007Hz,0000069275c,0000000.150s, 005.4C,00002195
2016-01-04 03:13:00 r, 17.81m,0000000007Hz,0000069170c,0000000.150s, 005.4C,00002195
2016-01-04 03:23:02 r, 17.81m,0000000007Hz,0000069339c,0000000.150s, 005.4C,00002195
2016-01-04 03:33:00 r, 17.81m,0000000007Hz,0000069261c,0000000.150s, 005.4C,00002195
2016-01-04 03:43:00 r, 17.82m,0000000007Hz,0000070057c,0000000.152s, 005.4C,00002195
2016-01-04 03:53:00 r, 17.82m,0000000006Hz,0000070072c,0000000.152s, 005.8C,00002195
2016-01-04 04:03:00 r, 17.83m,0000000007Hz,0000071015c,0000000.154s, 005.8C,00002195
2016-01-04 04:13:00 r, 17.83m,0000000006Hz,0000070756c,0000000.154s, 005.8C,00002195
2016-01-04 04:23:00 r, 17.82m,0000000006Hz,0000070394c,0000000.153s, 005.8C,00002195
2016-01-04 04:33:02 r, 17.82m,0000000007Hz,0000070131c,0000000.152s, 005.8C,00002195
2016-01-04 04:43:00 r, 17.82m,0000000007Hz,0000070005c,0000000.152s, 005.8C,00002195
2016-01-04 04:53:00 r, 17.82m,0000000007Hz,0000069925c,0000000.152s, 005.4C,00002195
2016-01-04 05:03:00 r, 17.81m,0000000007Hz,0000069208c,0000000.150s, 005.8C,00002195
2016-01-04 05:13:00 r, 17.81m,0000000006Hz,0000069170c,0000000.150s, 005.8C,00002195
2016-01-04 05:23:00 r, 17.79m,0000000007Hz,0000068369c,0000000.148s, 005.8C,00002195
2016-01-04 05:33:01 r, 17.79m,0000000007Hz,0000068070c,0000000.148s, 005.8C,00002195
2016-01-04 05:43:00 r, 17.78m,0000000007Hz,0000067278c,0000000.146s, 005.8C,00002195
2016-01-04 05:53:00 r, 17.77m,0000000007Hz,0000066847c,0000000.145s, 005.8C,00002195
2016-01-04 06:03:01 r, 17.77m,0000000006Hz,0000066855c,0000000.145s, 005.8C,00002195
2016-01-04 06:13:00 r, 17.76m,0000000007Hz,0000066242c,0000000.144s, 005.8C,00002195
2016-01-04 06:23:00 r, 17.76m,0000000007Hz,0000066142c,0000000.144s, 005.8C,00002195
2016-01-04 06:33:02 r, 17.75m,0000000007Hz,0000065283c,0000000.142s, 006.1C,00002195
2016-01-04 06:43:00 r, 17.74m,0000000007Hz,0000065132c,0000000.141s, 006.4C,00002195
2016-01-04 06:53:00 r, 17.73m,0000000007Hz,0000064033c,0000000.139s, 006.7C,00002195
2016-01-04 07:03:00 r, 17.66m,0000000007Hz,0000060551c,0000000.131s, 007.4C,00002195
2016-01-04 07:13:00 r, 17.44m,0000000009Hz,0000049156c,0000000.107s, 007.7C,00002195
2016-01-04 07:23:00 r, 16.84m,0000000017Hz,0000028217c,0000000.061s, 008.3C,00002195
2016-01-04 07:33:00 r, 15.69m,0000000047Hz,0000009810c,0000000.021s, 008.7C,00002195
2016-01-04 07:43:01 r, 14.06m,0000000211Hz,0000000000c,0000000.000s, 009.0C,00002195
2016-01-04 07:53:00 r, 12.17m,0000001204Hz,0000000000c,0000000.000s, 009.0C,00002195
2016-01-04 08:03:01 r, 10.31m,0000006702Hz,0000000000c,0000000.000s, 009.0C,00002195
2016-01-04 08:13:00 r, 08.79m,0000027050Hz,0000000000c,0000000.000s, 009.3C,00002195
2016-01-04 08:23:01 r, 07.70m,0000073980Hz,0000000000c,0000000.000s, 009.3C,00002195
2016-01-04 08:33:00 r, 06.93m,0000150565Hz,0000000000c,0000000.000s, 009.3C,00002195
2016-01-04 08:43:00 r, 06.41m,0000242270Hz,0000000000c,0000000.000s, 009.3C,00002195
2016-01-04 08:53:00 r, 06.03m,0000344086Hz,0000000000c,0000000.000s, 009.3C,00002195
2016-01-04 09:03:00 r, 00.00m,0000442346Hz,0000000000c,0000000.000s, 009.6C,00002195
2016-01-04 09:13:00 r, 00.00m,0000537505Hz,0000000000c,0000000.000s, 009.6C,00002195
2016-01-04 09:23:00 r, 00.00m,0000561950Hz,0000000000c,0000000.000s, 009.9C,00002195
2016-01-04 09:33:00 r, 00.00m,0000561958Hz,0000000000c,0000000.000s, 010.3C,00002195
2016-01-04 09:43:01 r, 00.00m,0000562128Hz,0000000000c,0000000.000s, 010.9C,00002195
2016-01-04 09:53:00 r, 00.00m,0000562200Hz,0000000000c,0000000.000s, 011.9C,00002195
2016-01-04 10:03:00 r, 00.00m,0000562302Hz,0000000000c,0000000.000s, 012.5C,00002195
2016-01-04 10:13:02 r, 00.00m,0000562327Hz,0000000000c,0000000.000s, 013.2C,00002195
2016-01-04 10:23:00 r, 00.00m,0000562462Hz,0000000000c,0000000.000s, 013.8C,00002195
2016-01-04 10:33:01 r, 00.00m,0000562505Hz,0000000000c,0000000.000s, 014.5C,00002195
2016-01-04 10:43:00 r, 00.00m,0000562671Hz,0000000000c,0000000.000s, 015.1C,00002195
2016-01-04 10:53:00 r, 00.00m,0000562742Hz,0000000000c,0000000.000s, 015.7C,00002195
2016-01-04 11:03:02 r, 00.00m,0000562796Hz,0000000000c,0000000.000s, 016.1C,00002195
2016-01-04 11:13:00 r, 00.00m,0000562753Hz,0000000000c,0000000.000s, 015.7C,00002195
2016-01-04 11:23:00 r, 00.00m,0000562794Hz,0000000000c,0000000.000s, 015.4C,00002195
2016-01-04 11:33:00 r, 00.00m,0000562728Hz,0000000000c,0000000.000s, 015.4C,00002195
2016-01-04 11:43:00 r, 00.00m,0000562673Hz,0000000000c,0000000.000s, 015.4C,00002195
2016-01-04 11:53:00 r, 00.00m,0000562581Hz,0000000000c,0000000.000s, 015.1C,00002195
2016-01-04 12:03:00 r, 00.00m,0000562666Hz,0000000000c,0000000.000s, 015.1C,00002195
2016-01-04 12:13:01 r, 00.00m,0000562663Hz,0000000000c,0000000.000s, 015.1C,00002195
2016-01-04 12:23:00 r, 00.00m,0000562628Hz,0000000000c,0000000.000s, 014.8C,00002195
2016-01-04 12:33:00 r, 00.00m,0000562674Hz,0000000000c,0000000.000s, 015.1C,00002195
2016-01-04 12:43:02 r, 00.00m,0000562624Hz,0000000000c,0000000.000s, 015.1C,00002195
2016-01-04 12:53:00 r, 00.00m,0000562726Hz,0000000000c,0000000.000s, 015.4C,00002195
2016-01-04 13:03:01 r, 00.00m,0000562628Hz,0000000000c,0000000.000s, 015.1C,00002195
2016-01-04 13:13:00 r, 00.00m,0000562630Hz,0000000000c,0000000.000s, 015.4C,00002195
2016-01-04 13:23:00 r, 00.00m,0000562682Hz,0000000000c,0000000.000s, 015.1C,00002195
2016-01-04 13:33:02 r, 00.00m,0000562696Hz,0000000000c,0000000.000s, 015.1C,00002195
2016-01-04 13:43:00 r, 00.00m,0000562658Hz,0000000000c,0000000.000s, 015.1C,00002195
2016-01-04 13:53:00 r, 00.00m,0000562586Hz,0000000000c,0000000.000s, 015.1C,00002195
2016-01-04 14:03:00 r, 00.00m,0000562523Hz,0000000000c,0000000.000s, 014.1C,00002195
2016-01-04 14:13:00 r, 00.00m,0000562480Hz,0000000000c,0000000.000s, 013.8C,00002195
2016-01-04 14:23:00 r, 00.00m,0000562471Hz,0000000000c,0000000.000s, 013.2C,00002195
2016-01-04 14:33:00 r, 00.00m,0000562371Hz,0000000000c,0000000.000s, 012.8C,00002195
2016-01-04 14:43:02 r, 00.00m,0000562240Hz,0000000000c,0000000.000s, 012.5C,00002195
2016-01-04 14:53:00 r, 00.00m,0000562260Hz,0000000000c,0000000.000s, 012.5C,00002195
2016-01-04 15:03:00 r, 00.00m,0000562197Hz,0000000000c,0000000.000s, 012.2C,00002195
2016-01-04 15:13:00 r, 00.00m,0000562246Hz,0000000000c,0000000.000s, 012.2C,00002195
2016-01-04 15:23:00 r, 00.00m,0000562339Hz,0000000000c,0000000.000s, 012.2C,00002195
2016-01-04 15:33:02 r, 00.00m,0000562329Hz,0000000000c,0000000.000s, 012.2C,00002195
2016-01-04 15:43:00 r, 00.00m,0000562117Hz,0000000000c,0000000.000s, 011.9C,00002195
2016-01-04 15:53:00 r, 00.00m,0000562178Hz,0000000000c,0000000.000s, 011.9C,00002195
2016-01-04 16:03:02 r, 00.00m,0000506627Hz,0000000000c,0000000.000s, 011.6C,00002195
2016-01-04 16:13:00 r, 05.96m,0000367703Hz,0000000000c,0000000.000s, 011.6C,00002195
2016-01-04 16:23:00 r, 06.31m,0000266420Hz,0000000000c,0000000.000s, 011.6C,00002195
2016-01-04 16:33:00 r, 06.93m,0000150990Hz,0000000000c,0000000.000s, 011.6C,00002195
2016-01-04 16:43:01 r, 07.68m,0000075700Hz,0000000000c,0000000.000s, 011.2C,00002195
2016-01-04 16:53:00 r, 08.78m,0000027447Hz,0000000000c,0000000.000s, 011.2C,00002195
2016-01-04 17:03:00 r, 10.28m,0000006881Hz,0000000000c,0000000.000s, 011.2C,00002195
2016-01-04 17:13:02 r, 12.10m,0000001284Hz,0000000000c,0000000.000s, 010.9C,00002195
2016-01-04 17:23:00 r, 14.03m,0000000218Hz,0000000000c,0000000.000s, 011.2C,00002195
2016-01-04 17:33:00 r, 15.77m,0000000043Hz,0000010577c,0000000.023s, 011.2C,00002195
2016-01-04 17:43:00 r, 16.82m,0000000016Hz,0000027954c,0000000.061s, 011.2C,00002195
2016-01-04 17:53:00 r, 17.34m,0000000010Hz,0000044984c,0000000.098s, 011.2C,00002195
2016-01-04 18:03:00 r, 17.55m,0000000008Hz,0000054687c,0000000.119s, 011.2C,00002195
2016-01-04 18:13:01 r, 17.61m,0000000008Hz,0000057630c,0000000.125s, 011.2C,00002195
2016-01-04 18:23:00 r, 17.65m,0000000008Hz,0000059481c,0000000.129s, 011.6C,00002195
2016-01-04 18:33:00 r, 17.65m,0000000008Hz,0000059417c,0000000.129s, 011.6C,00002195
2016-01-04 18:43:01 r, 17.63m,0000000008Hz,0000058573c,0000000.127s, 011.6C,00002195
2016-01-04 18:53:00 r, 17.62m,0000000008Hz,0000058352c,0000000.127s, 011.6C,00002195
2016-01-04 19:03:00 r, 17.59m,0000000008Hz,0000056578c,0000000.123s, 011.9C,00002195
2016-01-04 19:13:00 r, 17.47m,0000000009Hz,0000050760c,0000000.110s, 011.6C,00002195
2016-01-04 19:23:00 r, 17.35m,0000000010Hz,0000045407c,0000000.099s, 011.9C,00002195
2016-01-04 19:33:00 r, 17.42m,0000000009Hz,0000048310c,0000000.105s, 011.9C,00002195
2016-01-04 19:43:00 r, 17.51m,0000000009Hz,0000052762c,0000000.115s, 011.9C,00002195
2016-01-04 19:53:00 r, 17.51m,0000000009Hz,0000052700c,0000000.114s, 011.9C,00002195
2016-01-04 20:03:00 r, 17.41m,0000000010Hz,0000047951c,0000000.104s, 011.9C,00002195
2016-01-04 20:13:00 r, 17.31m,0000000010Hz,0000043546c,0000000.095s, 011.9C,00002195
2016-01-04 20:23:00 r, 17.55m,0000000009Hz,0000054528c,0000000.118s, 011.9C,00002195
2016-01-04 20:33:00 r, 17.51m,0000000008Hz,0000052776c,0000000.115s, 011.9C,00002195
2016-01-04 20:43:00 r, 17.45m,0000000010Hz,0000049820c,0000000.108s, 011.9C,00002195
2016-01-04 20:53:00 r, 17.31m,0000000011Hz,0000043949c,0000000.095s, 012.2C,00002195
2016-01-04 21:03:00 r, 17.40m,0000000009Hz,0000047423c,0000000.103s, 012.2C,00002195
2016-01-04 21:13:00 r, 17.21m,0000000011Hz,0000040130c,0000000.087s, 012.2C,00002195
2016-01-04 21:23:00 r, 16.38m,0000000025Hz,0000018642c,0000000.040s, 012.2C,00002195
2016-01-04 21:33:00 r, 16.52m,0000000022Hz,0000021071c,0000000.046s, 012.5C,00002195
2016-01-04 21:43:02 r, 16.22m,0000000029Hz,0000015984c,0000000.035s, 012.5C,00002195
2016-01-04 21:53:00 r, 16.38m,0000000024Hz,0000018574c,0000000.040s, 012.5C,00002195
2016-01-04 22:03:00 r, 17.23m,0000000012Hz,0000040742c,0000000.088s, 012.5C,00002195
2016-01-04 22:13:01 r, 16.70m,0000000019Hz,0000025063c,0000000.054s, 012.5C,00002195
2016-01-04 22:23:00 r, 16.73m,0000000018Hz,0000025653c,0000000.056s, 012.5C,00002195
2016-01-04 22:33:00 r, 16.91m,0000000015Hz,0000030222c,0000000.066s, 012.5C,00002195
2016-01-04 22:43:01 r, 17.35m,0000000010Hz,0000045270c,0000000.098s, 012.5C,00002195
2016-01-04 22:53:00 r, 17.13m,0000000013Hz,0000037216c,0000000.081s, 012.5C,00002195
2016-01-04 23:03:02 r, 16.64m,0000000020Hz,0000023513c,0000000.051s, 012.5C,00002195
2016-01-04 23:13:01 r, 17.04m,0000000014Hz,0000034295c,0000000.074s, 012.2C,00002195
2016-01-04 23:23:02 r, 17.09m,0000000013Hz,0000035979c,0000000.078s, 012.2C,00002195
2016-01-04 23:33:00 r, 17.01m,0000000014Hz,0000033249c,0000000.072s, 012.2C,00002195
2016-01-04 23:43:00 r, 17.25m,0000000011Hz,0000041463c,0000000.090s, 012.2C,00002195
2016-01-04 23:53:02 r, 17.55m,0000000008Hz,0000054758c,0000000.119s, 012.2C,00002195
